Regional Weather Roundup
Issued by NWS

Home | Current Version | Previous Version | Text Only | Print | Product List | Glossary On
Versions: 1 2 3 4 5 6 7 8 9 10 11 12 13 14 15 16 17 18 19 20 21 22 23 24 25 26 27 28 29 30 31 32 33 34 35 36 37 38 39 40 41 42 43 44 45 46 47 48 49 50
000
ASUS45 KBOU 191807
RWRCO

WEATHER ROUNDUP FOR COLORADO
NATIONAL WEATHER SERVICE DENVER/BOULDER CO
1200 PM MDT TUE AUG 19 2014

NOTE: "FAIR" INDICATES FEW OR NO CLOUDS BELOW 12000 FEET WITH NO
SIGNIFICANT WEATHER AND/OR OBSTRUCTIONS TO VISIBILITY.

COZ001>005-013-030-031-191900-
...NORTHWEST COLORADO...

CITY           SKY/WX    TMP DP  RH WIND       PRES   REMARKS
CRAIG          CLOUDY    70  45  40 W7        30.13S
HAYDEN         CLOUDY    68  45  42 CALM      30.13F
MEEKER         HVY RAIN  57  53  86 N16       30.14F FOG
MOUNT WERNER   NOT AVBL
STEAMBOAT SPGS CLOUDY    66  49  55 SE7       30.15F
WALDEN         PTSUNNY   64  36  34 S5        30.22F
$$

COZ006>008-011-191900-
...WEST CENTRAL VALLEYS...

CITY           SKY/WX    TMP DP  RH WIND       PRES   REMARKS
GRAND JUNCTION CLOUDY    68  59  73 NW8       30.03F
MONTROSE       CLOUDY    77  48  35 NW9       30.08F
EAGLE          CLOUDY    66  43  42 CALM      30.14F
RIFLE          CLOUDY    74  44  34 W8        30.07F
DELTA          CLOUDY    82  47  29 S6        30.04F
NUCLA          CLOUDY    73  46  38 NW7       30.12F
$$

COZ017>023-064>068-191900-
...SOUTHWEST COLORADO...

CITY           SKY/WX    TMP DP  RH WIND       PRES   REMARKS
DURANGO        MOSUNNY   76  43  30 NE5       30.14F
CORTEZ         MOSUNNY   80  48  32 SW14      30.10S
PAGOSA SPRINGS MOSUNNY   75  40  28 S8        30.21F
TELLURIDE      PTSUNNY   66  45  45 CALM      30.28F
WOLF CREEK PAS NOT AVBL
$$

COZ009-010-012-014-032>034-037-058>063-191900-
...CENTRAL COLORADO...

CITY           SKY/WX    TMP DP  RH WIND       PRES   REMARKS
ASPEN          CLOUDY    68  41  37 SW3       30.18F
BUENA VISTA    PTSUNNY   75  35  23 N3        30.18F
COPPER MTN     CLOUDY    55  34  44 W13       30.51F
BERTHOUD PASS  PTSUNNY   46  46 100 N13G18    30.55F
COTTONWOOD PAS PTSUNNY   70  32  24 CALM      30.33F
GUNNISON       MOSUNNY   70  39  32 CALM      30.21F
KREMMLING      CLOUDY    70  36  28 SW3       30.20F
LEADVILLE      CLOUDY    60  35  39 N3        30.34F
MONARCH PASS   CLOUDY    54  36  50 W13       30.61S
SALIDA         PTSUNNY   76  40  27 NE3       30.22F
SUNLIGHT       CLOUDY    55  45  67 CALM      30.42F
WILKERSON PASS NOT AVBL
$$

COZ069>075-191900-
...SAN LUIS VALLEY/SANGRE DE CRISTO MOUNTAINS...

CITY           SKY/WX    TMP DP  RH WIND       PRES   REMARKS
ALAMOSA        MOSUNNY   76  41  28 MISG      30.18F
LA VETA PASS   SUNNY     68  37  32 S10G17    30.37S
SAGUACHE       MOSUNNY   72  45  37 S8        30.21F
$$

COZ035-036-038>040-191900-
...NORTHERN COLORADO FRONT RANGE...

CITY           SKY/WX    TMP DP  RH WIND       PRES   REMARKS
DENVER INTL AP PTSUNNY   83  44  25 CALM      29.97F
DMNS CITY PARK   N/A     87  44  22 E5        29.94F
AURORA         PTSUNNY   85  41  21 NE5       29.99F
FRONT RANGE AP NOT AVBL
ERIE MUNI ARPT MOSUNNY   85  42  22 CALM      29.94F
BOULDER MUN AP MOSUNNY   82  50  32 CALM      29.96F
CENTENNIAL     PTSUNNY   84  39  20 VRB6      30.00F
BROOMFIELD     PTSUNNY   84  45  24 S6        29.99F
FORT COLLINS   SUNNY     81  54  39 E6        29.94F
LONGMONT       SUNNY     85  53  33 CALM      29.96F
$$

COZ041-046-047-076>085-087-088-191900-
...PIKES PEAK/PALMER DIVIDE AND SOUTHERN FOOTHILLS...

CITY           SKY/WX    TMP DP  RH WIND       PRES   REMARKS
COLO. SPRINGS  PTSUNNY   79  49  34 S6        30.04F
A. F. ACADEMY  SUNNY     82  42  24 CALM      30.04F
ELLICOTT       MOSUNNY   80  44  27 SW3       30.02F
FALCON         MOSUNNY   81  41  24 CALM      30.09F
FORT CARSON    MOSUNNY   79  48  33 VRB5      30.01F
LIMON          SUNNY     88  36  15 MISG      29.97F
MONUMENT HILL  SUNNY     77  37  24 E5        30.09F
TRINIDAD       SUNNY     88  42  20 VRB6      30.01F
$$

COZ042>045-048>051-090-091-191900-
...NORTHEAST COLORADO...

CITY           SKY/WX    TMP DP  RH WIND       PRES   REMARKS
GREELEY ARPT   SUNNY     79  54  41 E5        29.94F
AKRON          MOSUNNY   86  51  29 S13       29.94F
BURLINGTON     SUNNY     83  53  35 VRB5      29.92F
WRAY             N/A     86  53  31 CALM      29.90F
STERLING       MOSUNNY   86  59  39 S6        29.89F
HOLYOKE        NOT AVBL
FORT MORGAN    MOSUNNY   82  52  34 SE5       29.93F
$$

COZ086-089-092>099-191900-
...SOUTHEAST COLORADO...

CITY           SKY/WX    TMP DP  RH WIND       PRES   REMARKS
PUEBLO         MOSUNNY   87  44  22 S7        29.92F
LA JUNTA       MOSUNNY   89  51  27 SW7       29.90F
LAMAR          MOSUNNY   90  49  24 VRB6      29.86F
SPRINGFIELD      N/A     91  50  24 S20G25    29.94F
$$


USA.gov is the U.S. government's official web portal to all federal, state and local government web resources and services.